Voltar ao catálogo

STARLINK-3518

AtivoComunicaçõesVLEO
NORAD 51732·PAYLOAD·🇺🇸 United States

Lançado Feb 21, 2022 de Cape Canaveral Space Force Station

Loading…

Próximas Passagens (próximas 24 horas)

TLE

AtualizadoSource: CelesTrak SupGP

Época: Sep 14, 2026, 21:19 UTC

1 51732C 22016U   26257.88868056 -.00019352  00000+0 -57210-3 0  2576
2 51732  53.1588 175.7839 0001409  95.5049 159.7890 15.34381275    15

Acompanhe STARLINK-3518 em tempo real com AllMySat

Download on the App Store